Чохатаури

Грузия     42˚00′51″N   42˚14′23″E
темп.,
°C
ветер,
м/с
пор.,
м/с
влажн.,
%
обл.,
%
осадки,
мм/ч
давл.,
гПа
погр.,
м
6 декабря, вс
вс601:00+6˚вюв22590 0.0 102442
04:00+6˚вюв22580 0.0 102334
07:00+5˚вюв22570 0.0 102331
10:00+8˚всв12560 0.0 102397
13:00+11˚св22520 0.0 1021321
16:00+11˚св12550 0.2 1021316
19:00+7˚вюв22670 0.3 102345
22:00+5˚в22660 0.3 102465
7 декабря, пн
пн701:00+5˚в23640 0.0 102480
04:00+4˚в23620 0.0 102571
07:00+4˚в23590 0.0 102565
10:00+6˚всв34540 0.0 1025181
13:00+10˚св35440 0.0 1023430
16:00+10˚св35450 0.0 1022378
19:00+6˚в23550 0.0 102470
22:00+5˚в33550 0.0 102482
8 декабря, вт
вт801:00+5˚в335517 0.0 102481
04:00+5˚в235524 0.0 102473
07:00+4˚в225657 0.0 102446
10:00+7˚в235379 0.0 1024115
13:00+10˚св235058 0.0 1021185
16:00+10˚всв115879 0.0 102148
19:00+9˚в2259100 0.0 102244
22:00+9˚вюв2359100 0.1 102357
9 декабря, ср
ср901:00+8˚вюв2265100 0.1 102350
04:00+8˚вюв1265100 0.1 102339
07:00+9˚вюв2270100 0.2 102339
10:00+10˚в1265100 0.2 102461
13:00+9˚вюв1178100 0.6 1023121
16:00+10˚св2380100 1.6 1022183
19:00+8˚в2287100 0.1 102456
22:00+7˚вюв128188 0.2 102529
10 декабря, чт
чт1001:00+8˚в127399 0.1 102537
04:00+8˚вюв127797 0.1 102630
07:00+7˚вюв227542 0.0 102637
10:00+9˚в226831 0.0 102683
13:00+12˚св23590 0.0 1024260
16:00+12˚св24610 0.0 1023219
19:00+8˚вюв22670 0.0 102548
22:00+7˚вюв22600 0.0 102547